Regional Weather Roundup
Issued by NWS Jackson, KY

Home | Current Version | Previous Version | Text Only | Print | Product List | Glossary Off
Versions: 1 2 3 4 5 6 7 8 9 10 11 12 13 14 15 16 17 18 19 20 21 22 23 24 25 26 27 28 29 30 31 32 33 34 35 36 37 38 39 40 41 42 43 44 45 46 47 48 49 50

000
ASUS43 KJKL 291510
RWRJKL

EAST KENTUCKY HOURLY WEATHER ROUNDUP
NATIONAL WEATHER SERVICE JACKSON KY
1100 AM EDT FRI JUL 29 2016

NOTE: "FAIR" INDICATES FEW OR NO CLOUDS BELOW 12,000 FEET WITH
NO SIGNIFICANT WEATHER AND/OR OBSTRUCTIONS TO VISIBILITY.

* THESE REPORTS ARE NOT UNDER NWS QUALITY CONTROL AND MAY NOT
  REPORT WEATHER SUCH AS PRECIPITATION AND FOG.

KYZ079-080-083-085-087-088-110-112-115-119-120-291600
...EASTERN KENTUCKY...

CITY           SKY/WX    TMP DP  RH WIND       PRES   REMARKS
JACKSON        CLOUDY    74  70  87 CALM      30.01S
LONDON         CLOUDY    74  70  87 S7        30.01S
SOMERSET*      CLOUDY    77  72  83 SW6       30.01S
MONTICELLO*    PTSUNNY  N/A N/A N/A N8        30.02R
WILLIAMSBURG*  PTSUNNY   75  75 100 S5        30.02S
MIDDLESBORO*   CLOUDY    76  71  87 CALM      30.02S
HARLAN APT*    CLOUDY    72  68  88 CALM      30.04R
PIKE CO APT*   CLOUDY    72  72 100 CALM      30.02S
BIG SANDY APT* CLOUDY    73  72  94 W3        30.01S
MOREHEAD APT*  LGT RAIN  72  70  94 CALM      30.01R
ASHLAND*       CLOUDY    75  72  88 SW6       29.95S
$$

KYZ035-036-041-042-044-050-067-078-099-291600
...CENTRAL KENTUCKY...

CITY           SKY/WX    TMP DP  RH WIND       PRES   REMARKS
MT STERLING*   CLOUDY    73  72  94 SW6       30.00S
FLEMING/MASON* CLOUDY    74  72  91 S8        29.99R
DANVILLE*      CLOUDY    77  70  78 SW6       30.00R
LEXINGTON      CLOUDY    78  70  76 SW9       29.98R
FRANKFORT      PTSUNNY   79  70  74 SW6       29.96R
LOUISVILLE     PTSUNNY   83  70  64 CALM      29.95R
LEBANON*       CLOUDY    77  72  83 S6        29.98S
GLASGOW*       CLOUDY    77  74  91 SW8       29.98S
BOWLING GREEN  TSTM      73  71  93 S5        29.98R VSB 1/4
$$

KYZ091>093-OHZ055-061-077-WVZ005-015-034-035-042-291600
...SOUTHERN OHIO/WEST VIRGINIA...

CITY           SKY/WX    TMP DP  RH WIND       PRES   REMARKS
COVINGTON      PTSUNNY   79  72  79 VRB5      29.96R
COLUMBUS       CLOUDY    73  70  90 S5        29.95S FOG
DAYTON         MOSUNNY   81  69  67 SW5       29.96S
WILMINGTON     CLOUDY    77  72  84 S5        29.96S
HUNTINGTON     CLOUDY    76  71  85 S6        29.98R
CHARLESTON     PTSUNNY   75  70  84 SW6       29.99S
PINEVILLE*     CLOUDY    74  66  76 MISG      30.09S
BECKLEY        CLOUDY    71  65  81 W6        30.07S
BLUEFIELD      PTSUNNY   70  64  81 NW7       30.09S
LOGAN CO APT*  CLOUDY    73  70  88 CALM      30.01F
$$

VAZ002-007-008-TNZ017-027-036-066-071-291600
...SOUTHWEST VIRGINIA/EAST TENNESSEE...

CITY           SKY/WX    TMP DP  RH WIND       PRES   REMARKS
WISE*          CLOUDY    73  68  83 SW7       30.09S
JONESVILLE*    PTSUNNY   72  70  94 CALM      30.06S
ABINGDON*      CLOUDY    74  69  83 W6        30.07S
BRISTOL        PTSUNNY   78  68  71 W7        30.04F
MORRISTOWN*    PTSUNNY   79  72  78 SW5       30.02F
SEVIERVILLE*   CLOUDY    81  70  69 SW6       30.01S
KNOXVILLE      PTSUNNY   80  71  74 S12       30.01R
OAK RIDGE      PTSUNNY   79  72  79 CALM      30.03R
CROSSVILLE     MOSUNNY   77  69  76 VRB6      30.07R
NASHVILLE      PTSUNNY   81  73  76 S12       29.99S
$$

...KEY TO REMARKS...
VSB - VISIBILITY IN MILES
WCI - WIND CHILL INDEX
HX  - HEAT INDEX

$$



USA.gov is the U.S. government's official web portal to all federal, state and local government web resources and services.